145P/Shoemaker-Levy 5 (2009)

Japanese version
Home page
Total 5,708 html files since Dec. 4, 1995
Updated on April 11, 2008

---------------------------------------------------------------------

* Profile

* Orbital Elements

Perturbed ephemeris below is based on elements from MPC 41159. 

 Epoch = 2454920.50000 TT   T = 2454917.08721 TT
 Peri. =   10.13565         a =     4.1305049 AU
 Node  =   26.90238 J2000.0 e =     0.5421009
 Incl. =   11.29927         q =     1.8913543 AU

* Finding Charts

* Magnitudes Graph

        m1 = 10.5 + 5 log d + 15.0 log r

---------------------------------------------------------------------

The orbital elements are calculated using the Minor Planet & Comet Ephemeris Service.
The charts are made with StellaNavigator Ver.8 (AstroArts).
The magnitudes graphs are made with Comet for Windows.

---------------------------------------------------------------------

Copyright(C) 1995-2007 Seiichi Yoshida (comet@aerith.net). All rights reserved.